Alabaster, AL

12:13 AM CDT on April 29, 2017 (GMT -0500)
Shelby County

Weather History for KEET - October, 2011

Change the Weather History Date:

Wednesday, October 12, 2011

  Actual Average Record
Temperature  
Mean Temperature 64 °F 65 °F  
Max Temperature 67 °F 76 °F 91 °F (1975)
Min Temperature 61 °F 54 °F 33 °F (1980)
Degree Days  
Heating Degree Days 1 3  
Month to date heating degree days 25 22  
Since 1 July heating degree days 30 29  
Cooling Degree Days 0 3  
Month to date cooling degree days 23 45  
Year to date cooling degree days 2206 1929  
Growing Degree Days 13 (Base 50)    
Moisture  
Dew Point 61 °F    
Average Humidity 87    
Maximum Humidity 100    
Minimum Humidity 73    
Precipitation  
Precipitation 0.01 in 0.08 in 0.31 in (2010)
Month to date precipitation 0.15 1.17  
Year to date precipitation 36.53 43.08  
Snow  
Snow 0.00 in - - ()
Month to date snowfall 0.0  
Since 1 July snowfall 0.0  
Since 1 September snowfall 0.0  
Snow Depth 0.00 in    
Sea Level Pressure  
Sea Level Pressure 29.86 in    
Wind  
Wind Speed 1 mph (NE)    
Max Wind Speed 6 mph    
Max Gust Speed 8 mph    
Visibility 8 miles    
Events      
T = Trace of Precipitation, MM = Missing Value Source: NWS Daily Summary

Daily Weather History Graph

Daily Weather History Graph

Search for Another Location

Airport or City:

Trip Planner

Search our weather history database for the weather conditions in past years. The results will help you decide how hot, cold, wet, or windy it might be!

Date:

Astronomy

Oct. 12, 2011 Rise Set
Actual Time 6:49 AM CDT 6:17 PM CDT
Civil Twilight 6:24 AM CDT 6:42 PM CDT
Nautical Twilight 5:55 AM CDT 7:11 PM CDT
Astronomical Twilight 5:26 AM CDT 7:39 PM CDT
Moon 6:25 PM CDT (10/12) 7:18 AM CDT (10/12)
Length of Visible Light 12h 18m
Length of Day
11h 28m
Full, 100% of the Moon is Illuminated
Oct 12
Full
Oct 19
Last Quarter
Oct 26
New
Nov 2
First Quarter
Nov 10
Full

Hourly Weather History & Observations

Time (CDT) Temp. Dew Point Humidity Pressure Visibility Wind Dir Wind Speed Gust Speed Precip Events Conditions
12:53 AM 63.0 °F 60.1 °F 90% 29.88 in 10.0 mi Calm Calm - N/A   Overcast
1:53 AM 62.1 °F 60.1 °F 93% 29.87 in 8.0 mi Calm Calm - N/A   Overcast
2:03 AM 62.6 °F 60.8 °F 94% 29.88 in 10.0 mi Calm Calm - N/A   Overcast
2:49 AM 62.6 °F 60.8 °F 94% 29.88 in 8.0 mi Calm Calm - N/A   Overcast
2:53 AM 62.1 °F 60.1 °F 93% 29.87 in 7.0 mi Calm Calm - N/A   Overcast
3:07 AM 62.6 °F 60.8 °F 94% 29.88 in 9.0 mi Calm Calm - N/A   Overcast
3:53 AM 62.1 °F 61.0 °F 96% 29.86 in 8.0 mi Calm Calm - N/A   Overcast
4:29 AM 62.6 °F 60.8 °F 94% 29.87 in 8.0 mi Calm Calm - N/A   Overcast
4:53 AM 62.1 °F 60.1 °F 93% 29.86 in 7.0 mi Calm Calm - N/A   Overcast
5:20 AM 62.6 °F 60.8 °F 94% 29.88 in 8.0 mi Calm Calm - N/A   Overcast
5:53 AM 61.0 °F 60.1 °F 97% 29.86 in 5.0 mi Calm Calm - 0.01 in   Overcast
6:01 AM 60.8 °F 60.8 °F 100% 29.87 in 5.0 mi Calm Calm - N/A   Overcast
6:28 AM 60.8 °F 60.8 °F 100% 29.88 in 7.0 mi Calm Calm - N/A   Overcast
6:53 AM 62.1 °F 60.1 °F 93% 29.88 in 10.0 mi Calm Calm - N/A   Overcast
7:22 AM 62.6 °F 60.8 °F 94% 29.89 in 10.0 mi Calm Calm - N/A   Overcast
7:35 AM 62.6 °F 60.8 °F 94% 29.89 in 10.0 mi Calm Calm - N/A   Overcast
7:43 AM 62.6 °F 60.8 °F 94% 29.89 in 10.0 mi Calm Calm - N/A   Overcast
7:53 AM 62.1 °F 60.1 °F 93% 29.88 in 10.0 mi Calm Calm - N/A   Overcast
8:10 AM 62.6 °F 60.8 °F 94% 29.89 in 8.0 mi NE 3.5 mph - N/A   Overcast
8:26 AM 62.6 °F 60.8 °F 94% 29.89 in 10.0 mi Calm Calm - N/A   Overcast
8:36 AM 62.6 °F 60.8 °F 94% 29.89 in 10.0 mi Calm Calm - N/A   Overcast
8:53 AM 63.0 °F 60.1 °F 90% 29.88 in 10.0 mi Calm Calm - N/A   Overcast
9:21 AM 62.6 °F 60.8 °F 94% 29.90 in 10.0 mi ENE 3.5 mph - N/A   Overcast
9:29 AM 64.4 °F 60.8 °F 88% 29.89 in 10.0 mi Calm Calm - N/A   Overcast
9:47 AM 64.4 °F 60.8 °F 88% 29.89 in 10.0 mi Variable 3.5 mph - N/A   Overcast
9:53 AM 64.0 °F 59.0 °F 84% 29.88 in 10.0 mi North 4.6 mph - N/A   Overcast
10:04 AM 64.4 °F 59.0 °F 83% 29.89 in 10.0 mi Calm Calm - N/A   Overcast
10:14 AM 64.4 °F 59.0 °F 83% 29.89 in 10.0 mi Calm Calm - N/A   Overcast
10:23 AM 64.4 °F 60.8 °F 88% 29.89 in 10.0 mi Calm Calm - N/A   Overcast
10:53 AM 64.9 °F 59.0 °F 81% 29.88 in 10.0 mi Calm Calm - N/A   Overcast
11:07 AM 64.4 °F 60.8 °F 88% 29.89 in 10.0 mi Calm Calm - N/A   Overcast
11:41 AM 64.4 °F 60.8 °F 88% 29.88 in 10.0 mi NNW 4.6 mph - N/A   Overcast
11:53 AM 64.9 °F 60.1 °F 84% 29.87 in 10.0 mi NNW 3.5 mph - N/A   Overcast
12:53 PM 66.0 °F 57.9 °F 75% 29.85 in 10.0 mi Calm Calm - N/A   Overcast
1:53 PM 64.9 °F 60.1 °F 84% 29.83 in 9.0 mi NNW 3.5 mph - N/A   Overcast
2:53 PM 66.0 °F 59.0 °F 78% 29.82 in 10.0 mi Calm Calm - N/A   Overcast
4:53 PM 66.0 °F 60.1 °F 81% 29.79 in 8.0 mi Calm Calm - N/A   Overcast
5:53 PM 64.9 °F 61.0 °F 87% 29.79 in 6.0 mi ESE 3.5 mph - N/A   Overcast
6:53 PM 64.0 °F 62.1 °F 93% 29.79 in 7.0 mi Calm Calm - N/A   Overcast
7:38 PM 64.4 °F 60.8 °F 88% 29.81 in 7.0 mi Calm Calm - N/A   Overcast
7:53 PM 64.0 °F 62.1 °F 93% 29.81 in 6.0 mi South 3.5 mph - N/A   Overcast
8:14 PM 64.4 °F 62.6 °F 94% 29.82 in 5.0 mi SE 3.5 mph - N/A   Overcast
8:42 PM 64.4 °F 62.6 °F 94% 29.82 in 6.0 mi Calm Calm - N/A   Overcast
8:53 PM 64.0 °F 62.1 °F 93% 29.81 in 6.0 mi Calm Calm - N/A   Overcast
9:24 PM 64.4 °F 62.6 °F 94% 29.82 in 6.0 mi Calm Calm - N/A   Overcast
9:53 PM 63.0 °F 62.1 °F 97% 29.82 in 6.0 mi Calm Calm - N/A   Overcast
10:31 PM 62.6 °F 62.6 °F 100% 29.82 in 5.0 mi Calm Calm - 0.00 in   Overcast
10:44 PM 62.6 °F 62.6 °F 100% 29.81 in 5.0 mi Calm Calm - 0.00 in   Overcast
10:53 PM 63.0 °F 62.1 °F 97% 29.80 in 6.0 mi Calm Calm - 0.00 in   Overcast
11:39 PM 62.6 °F 62.6 °F 100% 29.79 in 6.0 mi SSE 3.5 mph - N/A   Overcast